Index of /20260422/WXO-DD/model_gdps/15km/00/083
Name Last modified Size Description
Parent Directory -
20260422T00Z_MSC_GDPS_AirTemp_AGL-120m_LatLon0.15_PT083H.grib2 2026-04-22 04:15 908K
20260422T00Z_MSC_GDPS_AirTemp_AGL-2m_LatLon0.15_PT083H.grib2 2026-04-22 04:15 1.0M
20260422T00Z_MSC_GDPS_AirTemp_AGL-40m_LatLon0.15_PT083H.grib2 2026-04-22 04:15 810K
20260422T00Z_MSC_GDPS_AirTemp_AGL-80m_LatLon0.15_PT083H.grib2 2026-04-22 04:15 799K
20260422T00Z_MSC_GDPS_Albedo_Sfc_LatLon0.15_PT083H.grib2 2026-04-22 04:15 243K
20260422T00Z_MSC_GDPS_ConvectivePrecip-Accum_Sfc_LatLon0.15_PT083H.grib2 2026-04-22 04:15 3.1M
20260422T00Z_MSC_GDPS_DewPointDepression_AGL-2m_LatLon0.15_PT083H.grib2 2026-04-22 04:15 753K
20260422T00Z_MSC_GDPS_DewPoint_AGL-2m_LatLon0.15_PT083H.grib2 2026-04-22 04:15 612K
20260422T00Z_MSC_GDPS_DownwardLongwaveRadiationFlux-Accum_Sfc_LatLon0.15_PT083H.grib2 2026-04-22 04:15 691K
20260422T00Z_MSC_GDPS_DownwardShortwaveRadiationFlux-Accum_Sfc_LatLon0.15_PT083H.grib2 2026-04-22 04:15 916K
20260422T00Z_MSC_GDPS_FreezingRain-Accum1h_Sfc_LatLon0.15_PT083H.grib2 2026-04-22 04:15 56K
20260422T00Z_MSC_GDPS_FreezingRain-Accum_Sfc_LatLon0.15_PT083H.grib2 2026-04-22 04:15 304K
20260422T00Z_MSC_GDPS_IcePellets-Accum1h_Sfc_LatLon0.15_PT083H.grib2 2026-04-22 04:15 24K
20260422T00Z_MSC_GDPS_IcePellets-Accum_Sfc_LatLon0.15_PT083H.grib2 2026-04-22 04:15 114K
20260422T00Z_MSC_GDPS_LatentHeatNetFlux_Sfc_LatLon0.15_PT083H.grib2 2026-04-22 04:15 543K
20260422T00Z_MSC_GDPS_NetLongwaveRadiationFlux-Accum_Sfc_LatLon0.15_PT083H.grib2 2026-04-22 04:15 1.0M
20260422T00Z_MSC_GDPS_NetShortwaveRadiationFlux-Accum_Sfc_LatLon0.15_PT083H.grib2 2026-04-22 04:15 906K
20260422T00Z_MSC_GDPS_O3MixingRatio_LatLon0.15_PT083H.grib2 2026-04-22 04:58 2.2M
20260422T00Z_MSC_GDPS_O3_EAtm_LatLon0.15_PT083H.grib2 2026-04-22 04:58 2.5M
20260422T00Z_MSC_GDPS_PlanetaryBoundaryLayerHeight_Sfc_LatLon0.15_PT083H.grib2 2026-04-22 04:15 2.5M
20260422T00Z_MSC_GDPS_Precip-Accum1h_Sfc_LatLon0.15_PT083H.grib2 2026-04-22 04:15 3.3M
20260422T00Z_MSC_GDPS_Precip-Accum_Sfc_LatLon0.15_PT083H.grib2 2026-04-22 04:15 4.9M
20260422T00Z_MSC_GDPS_PrecipRate_Sfc_LatLon0.15_PT083H.grib2 2026-04-22 04:15 3.1M
20260422T00Z_MSC_GDPS_Pressure_MSL_LatLon0.15_PT083H.grib2 2026-04-22 04:15 719K
20260422T00Z_MSC_GDPS_Pressure_Sfc_LatLon0.15_PT083H.grib2 2026-04-22 04:15 1.1M
20260422T00Z_MSC_GDPS_RadiativeTemp_Sfc_LatLon0.15_PT083H.grib2 2026-04-22 04:15 498K
20260422T00Z_MSC_GDPS_Rain-Accum1h_Sfc_LatLon0.15_PT083H.grib2 2026-04-22 04:15 1.7M
20260422T00Z_MSC_GDPS_Rain-Accum_Sfc_LatLon0.15_PT083H.grib2 2026-04-22 04:15 4.0M
20260422T00Z_MSC_GDPS_RelativeHumidity_AGL-2m_LatLon0.15_PT083H.grib2 2026-04-22 04:15 1.1M
20260422T00Z_MSC_GDPS_Runoff-Accum_Sfc_LatLon0.15_PT083H.grib2 2026-04-22 04:15 104K
20260422T00Z_MSC_GDPS_SensibleHeatNetFlux_Sfc_LatLon0.15_PT083H.grib2 2026-04-22 04:15 482K
20260422T00Z_MSC_GDPS_Snow-Accum1h_Sfc_LatLon0.15_PT083H.grib2 2026-04-22 04:15 1.1M
20260422T00Z_MSC_GDPS_Snow-Accum_Sfc_LatLon0.15_PT083H.grib2 2026-04-22 04:15 1.9M
20260422T00Z_MSC_GDPS_SnowDepth_Sfc_LatLon0.15_PT083H.grib2 2026-04-22 04:15 1.8M
20260422T00Z_MSC_GDPS_SoilTemp_DBS-0to10cm_LatLon0.15_PT083H.grib2 2026-04-22 04:15 508K
20260422T00Z_MSC_GDPS_SoilTemp_Sfc_LatLon0.15_PT083H.grib2 2026-04-22 04:15 591K
20260422T00Z_MSC_GDPS_SoilVolumetricWaterContent_DBS-0to10cm_LatLon0.15_PT083H.grib2 2026-04-22 04:15 562K
20260422T00Z_MSC_GDPS_SoilVolumetricWaterContent_DBS-0to1cm_LatLon0.15_PT083H.grib2 2026-04-22 04:15 652K
20260422T00Z_MSC_GDPS_SpecificHumidity_AGL-120m_LatLon0.15_PT083H.grib2 2026-04-22 04:15 1.1M
20260422T00Z_MSC_GDPS_SpecificHumidity_AGL-2m_LatLon0.15_PT083H.grib2 2026-04-22 04:15 1.2M
20260422T00Z_MSC_GDPS_SpecificHumidity_AGL-40m_LatLon0.15_PT083H.grib2 2026-04-22 04:15 1.1M
20260422T00Z_MSC_GDPS_SpecificHumidity_AGL-80m_LatLon0.15_PT083H.grib2 2026-04-22 04:15 1.1M
20260422T00Z_MSC_GDPS_SpecificHumidity_Sfc_LatLon0.15_PT083H.grib2 2026-04-22 04:15 676K
20260422T00Z_MSC_GDPS_TotalCloudCover_Sfc_LatLon0.15_PT083H.grib2 2026-04-22 04:15 842K
20260422T00Z_MSC_GDPS_UVIndex-ClearSky_Sfc_LatLon0.15_PT083H.grib2 2026-04-22 04:58 1.1M
20260422T00Z_MSC_GDPS_UVIndex_Sfc_LatLon0.15_PT083H.grib2 2026-04-22 04:58 1.5M
20260422T00Z_MSC_GDPS_UpwardLongwaveRadiationFlux_NTAtm_LatLon0.15_PT083H.grib2 2026-04-22 04:15 849K
20260422T00Z_MSC_GDPS_WindDir_AGL-10m_LatLon0.15_PT083H.grib2 2026-04-22 04:15 1.3M
20260422T00Z_MSC_GDPS_WindDir_AGL-120m_LatLon0.15_PT083H.grib2 2026-04-22 04:15 1.3M
20260422T00Z_MSC_GDPS_WindDir_AGL-40m_LatLon0.15_PT083H.grib2 2026-04-22 04:15 1.4M
20260422T00Z_MSC_GDPS_WindDir_AGL-80m_LatLon0.15_PT083H.grib2 2026-04-22 04:15 1.4M
20260422T00Z_MSC_GDPS_WindDir_IsbL-0700_LatLon0.15_PT083H.grib2 2026-04-22 04:15 1.6M
20260422T00Z_MSC_GDPS_WindGust-Max_AGL-10m_LatLon0.15_PT083H.grib2 2026-04-22 04:15 2.2M
20260422T00Z_MSC_GDPS_WindGust-Min_AGL-10m_LatLon0.15_PT083H.grib2 2026-04-22 04:15 2.2M
20260422T00Z_MSC_GDPS_WindGust_AGL-10m_LatLon0.15_PT083H.grib2 2026-04-22 04:15 2.2M
20260422T00Z_MSC_GDPS_WindSpeed_AGL-10m_LatLon0.15_PT083H.grib2 2026-04-22 04:15 1.1M
20260422T00Z_MSC_GDPS_WindSpeed_AGL-120m_LatLon0.15_PT083H.grib2 2026-04-22 04:15 1.2M
20260422T00Z_MSC_GDPS_WindSpeed_AGL-40m_LatLon0.15_PT083H.grib2 2026-04-22 04:15 1.2M
20260422T00Z_MSC_GDPS_WindSpeed_AGL-80m_LatLon0.15_PT083H.grib2 2026-04-22 04:15 1.2M
20260422T00Z_MSC_GDPS_WindSpeed_IsbL-0700_LatLon0.15_PT083H.grib2 2026-04-22 04:15 1.5M
20260422T00Z_MSC_GDPS_WindU_AGL-10m_LatLon0.15_PT083H.grib2 2026-04-22 04:15 1.3M
20260422T00Z_MSC_GDPS_WindU_AGL-120m_LatLon0.15_PT083H.grib2 2026-04-22 04:15 971K
20260422T00Z_MSC_GDPS_WindU_AGL-40m_LatLon0.15_PT083H.grib2 2026-04-22 04:15 966K
20260422T00Z_MSC_GDPS_WindU_AGL-80m_LatLon0.15_PT083H.grib2 2026-04-22 04:15 971K
20260422T00Z_MSC_GDPS_WindU_IsbL-0700_LatLon0.15_PT083H.grib2 2026-04-22 04:15 1.2M
20260422T00Z_MSC_GDPS_WindV_AGL-10m_LatLon0.15_PT083H.grib2 2026-04-22 04:15 1.6M
20260422T00Z_MSC_GDPS_WindV_AGL-120m_LatLon0.15_PT083H.grib2 2026-04-22 04:15 969K
20260422T00Z_MSC_GDPS_WindV_AGL-40m_LatLon0.15_PT083H.grib2 2026-04-22 04:15 1.2M
20260422T00Z_MSC_GDPS_WindV_AGL-80m_LatLon0.15_PT083H.grib2 2026-04-22 04:15 970K
20260422T00Z_MSC_GDPS_WindV_IsbL-0700_LatLon0.15_PT083H.grib2 2026-04-22 04:15 1.2M